User: anonymous
Location: Nantong Television Tower
(32.0188°N, 120.8512°E)
Time: 10:35:57
(UTC+08:00)
Language:

Vanguard 3 - Orbit

View from above orbital plane
View from above orbital plane
View from above satellite
View from above satellite

Ground track
Ground track

The orbit data is extracted from the following two-line orbital elements,

1 00020U 59007A   14207.60948573  .00000215  00000-0  91199-4 0  5389
2 00020 033.3422 286.0523 1674662 014.8072 349.5995 11.54000173981601
Epoch (UTC): 26 July 2014 14:37:39
Eccentricity: 0.1674662
inclination: 33.3422°
perigee height: 508 km
apogee height: 3279 km
right ascension of ascending node: 286.0523°
argument of perigee: 14.8072°
revolutions per day: 11.54000173
mean anomaly at epoch: 349.5995°
orbit number at epoch: 98160

The dashed part of the orbit path shows where the satellite is in the earth's shadow,  

DLR